[[{"header":{"parameterUnit":"m.s-1","parameterCategory":1,"la1":30.2991,"la2":30.254,"lo1":-89.0895,"lo2":-89.0444,"dy":0.0017,"dx":0.0017,"nx":28,"ny":28,"refTime":"2025-07-29T03:00:00:Z","depth":0,"parameterNumber":2,"parameterNumberName":"U-component_of_WINDS"},"data":[0,0,0,0,0,0,0,0,0,0,0,0,0,0,0,0,0,0,0,0,0,0,0,0,0,0,0,0,0,0,0,0,0,0,0,0,0,0,0,0,0,0,0,0,0,0,0,0,0,0,0,0,0,0,0,0,0,0,1.8126,1.8127,0,1.8223,1.8224,1.8225,1.8208,1.8206,1.8205,1.8203,1.8306,1.8311,1.8315,0,0,0,0,0,0,0,0,0,0,0,0,0,1.793,1.7934,1.8125,1.8127,1.8128,1.8222,1.8224,1.8225,1.8208,1.8206,1.8204,1.8202,1.8305,1.831,1.8315,0,0,0,0,0,0,0,0,0,0,0,0,0,1.802,1.7935,1.8125,1.8131,1.8132,1.8222,1.8224,1.8226,1.8209,1.8206,1.8204,1.8201,1.8303,1.831,1.8316,1.8408,0,0,1.8336,1.8339,0,0,0,0,0,0,0,0,1.8015,1.8027,1.8129,1.8131,1.8132,1.8201,1.8193,1.8287,1.821,1.818,1.8203,1.82,1.8274,1.8282,1.8306,1.8413,1.8417,1.8337,1.8341,1.8343,1.8345,0,0,0,0,0,0,0,1.8009,1.8023,1.8164,1.813,1.8133,1.813,1.814,1.8211,1.824,1.8182,1.8181,1.8193,1.8274,1.83,1.8309,1.8419,1.8336,1.8342,1.8346,1.8349,1.8607,1.861,0,0,0,0,0,0,1.8,1.8018,1.8161,1.8167,1.8066,1.8136,1.8147,1.8181,1.8239,1.8246,1.8195,1.8192,1.829,1.8301,1.8312,1.8425,1.8343,1.8349,1.8353,1.8604,1.8608,1.8611,0,0,0,0,0,0,1.7996,1.8013,1.8157,1.8092,1.811,1.8142,1.8181,1.8185,1.8211,1.8249,1.8254,1.8216,1.8289,1.8303,1.8384,1.8428,1.8352,1.8358,1.8601,1.8605,1.8609,1.865,0,0,0,0,0,0,1.7991,1.8012,1.8046,1.8093,1.8114,1.8226,1.8183,1.8188,1.8221,1.8218,1.827,1.8276,1.8288,1.8375,1.8391,1.8436,1.8363,1.8597,1.8603,1.8608,1.8645,1.8655,1.8664,0,0,0,0,0,1.7984,1.8054,1.8047,1.8065,1.8157,1.8229,1.8241,1.8252,1.8225,1.826,1.8285,1.8274,1.842,1.8383,1.8401,1.8449,1.8594,1.8601,1.8608,1.864,1.8653,1.8663,0,0,0,0,0,0,1.8011,1.806,1.8054,1.8141,1.8181,1.8226,1.827,1.8264,1.8314,1.8309,1.8322,1.8334,1.8416,1.8441,1.8398,1.8541,1.8504,1.8514,1.8523,1.8535,1.8544,1.8537,1.8369,0,0,0,0,0,1.8027,1.808,1.812,1.8193,1.8214,1.8239,1.827,1.8275,1.8318,1.8335,1.8366,1.8409,1.8464,1.8501,1.8554,1.8648,1.866,1.869,1.8699,1.8707,1.8716,1.8769,1.8783,1.8633,1.8633,1.8633,0,0,1.8061,1.8094,1.8127,1.82,1.8231,1.8288,1.8253,1.8314,1.8356,1.8345,1.8423,1.8448,1.8496,1.8585,1.8625,1.8607,1.876,1.8715,1.8721,1.8726,1.8778,1.8792,1.8805,1.8637,1.8637,1.8636,0,0,1.8152,1.8182,1.8247,1.8279,1.8327,1.8344,1.8359,1.8406,1.8421,1.85,1.8493,1.8545,1.864,1.8675,1.8706,1.8812,1.8805,1.8829,1.8879,1.8931,1.8943,1.8954,1.8993,1.9007,1.8838,1.8838,1.8838,0,1.8189,1.8272,1.8281,1.8343,1.8376,1.8367,1.8434,1.8466,1.8529,1.8553,1.8532,1.8652,1.8684,1.8782,1.8808,1.8832,1.8852,1.8823,1.894,1.8951,1.8961,1.8999,1.9013,1.8841,1.8841,1.884,1.884,0,1.8316,1.8374,1.8421,1.8481,1.852,1.8584,1.8604,1.8642,1.8644,1.8663,1.8745,1.8783,1.8845,1.8868,1.8871,1.8967,1.8955,1.8937,1.89,1.8978,1.9014,1.9028,1.8845,1.8844,1.8843,1.8842,0,0,1.8427,1.8492,1.8509,1.8538,1.8591,1.8636,1.8701,1.876,1.8793,1.8838,1.8894,1.8975,1.8959,1.8994,1.9001,1.9046,1.913,1.9023,1.9025,1.9043,1.924,1.9253,1.927,1.9125,1.9128,1.913,1.9236,0,1.8524,1.8636,1.8647,1.8749,1.8804,1.8797,1.8854,1.8893,1.8913,1.8964,1.8986,1.9044,1.9018,1.904,1.9084,1.911,1.917,1.9103,1.9179,1.9181,1.9167,1.9288,1.9303,1.9401,1.925,1.9252,1.9254,0,1.8651,1.8699,1.8806,1.8853,1.8876,1.8927,1.8983,1.9031,1.9077,1.9088,1.9128,1.9129,1.9197,1.9157,1.9253,1.9207,1.9239,1.9256,1.9261,1.9269,1.9223,1.9301,1.9432,1.9447,1.9276,1.9274,1.9273,0,1.8723,1.8814,1.8891,1.8915,1.8971,1.9007,1.9032,1.9075,1.9111,1.916,1.9184,1.9241,1.9273,1.9318,1.9335,1.9304,1.9431,1.9391,1.9444,1.9444,1.9471,1.9469,1.9611,1.949,1.949,1.949,1.9489,0,1.8831,1.8897,1.8924,1.8971,1.9045,1.9058,1.9132,1.9156,1.9194,1.9247,1.9245,1.9295,1.9314,1.9368,1.9382,1.946,1.9474,1.9487,1.949,1.9488,1.9486,1.9509,1.9503,1.9494,1.9493,1.9492,1.9491,0,1.8924,1.8944,1.9027,1.9073,1.9087,1.914,1.918,1.9227,1.9246,1.9313,1.933,1.9361,1.9424,1.9446,1.9523,1.9532,1.9623,1.962,1.9608,1.9609,1.966,1.9656,1.9822,1.9845,1.9709,1.971,1.9711,0,1.8991,1.9042,1.9094,1.9129,1.9155,1.9211,1.9248,1.9263,1.9301,1.9357,1.9398,1.946,1.9511,1.9612,1.9643,1.9702,1.9701,1.9755,1.971,1.9706,1.9703,1.97,1.9706,1.9764,1.9765,1.9767,1.9767,0,1.911,1.9118,1.9169,1.9225,1.9269,1.9313,1.9357,1.9386,1.9408,1.9451,1.9515,1.9555,1.9633,1.9696,1.9756,1.9784,1.9781,1.9781,1.9797,1.9795,1.9786,1.9793,1.9632,1.9778,1.9777,1.9776,1.9775,1.9775,1.9193,1.9239,1.9282,1.9341,1.9375,1.9416,1.9462,1.9488,1.9541,1.9605,1.9611,1.9681,1.9727,1.9808,1.9839,1.9895,1.988,1.9902,1.9908,1.9913,1.9917,1.9777,1.9906,1.9905,1.9905,1.9905,1.9905,0,1.9313,1.9341,1.9394,1.9455,1.9501,1.9492,1.9541,1.958,1.9641,1.9684,1.9734,1.9809,1.987,1.9906,1.9967,2.0005,2.0005,2.0021,2.0019,2.0026,1.9927,1.9908,2.002,2.002,2.002,2.002,2.002,2.002,1.938,1.9457,1.947,1.9565,1.9593,1.966,1.9689,1.9727,1.9762,1.9845,1.9895,1.9918,1.9958,2.0023,2.0079,2.0088,2.0112,2.0129,2.0137,2.0044,2.0032,2.0021,2.0003,2.0134,2.0134,2.0232,2.0232,2.0233]},{"header":{"parameterUnit":"m.s-1","parameterCategory":1,"la1":30.2991,"la2":30.254,"lo1":-89.0895,"lo2":-89.0444,"dy":0.0017,"dx":0.0017,"nx":28,"ny":28,"refTime":"2025-07-29T03:00:00:Z","depth":0,"parameterNumber":3,"parameterNumberName":"V-component_of_WINDS"},"data":[0,0,0,0,0,0,0,0,0,0,0,0,0,0,0,0,0,0,0,0,0,0,0,0,0,0,0,0,0,0,0,0,0,0,0,0,0,0,0,0,0,0,0,0,0,0,0,0,0,0,0,0,0,0,0,0,0,0,1.2494,1.2495,0,1.2586,1.2587,1.2588,1.2493,1.2489,1.2486,1.2482,1.2576,1.2582,1.2588,0,0,0,0,0,0,0,0,0,0,0,0,0,1.2235,1.224,1.2494,1.2495,1.2496,1.2586,1.2587,1.2588,1.2494,1.2489,1.2485,1.248,1.2574,1.2581,1.2589,0,0,0,0,0,0,0,0,0,0,0,0,0,1.2339,1.2242,1.2494,1.246,1.2458,1.2585,1.2587,1.2589,1.2495,1.2489,1.2483,1.2478,1.2572,1.2581,1.259,1.2755,0,0,1.2617,1.2621,0,0,0,0,0,0,0,0,1.2333,1.2349,1.2464,1.2462,1.246,1.2522,1.253,1.2645,1.2496,1.2481,1.2482,1.2476,1.2563,1.2572,1.2602,1.276,1.2764,1.2618,1.2623,1.2627,1.2629,0,0,0,0,0,0,0,1.2326,1.2344,1.253,1.2466,1.2463,1.2439,1.2448,1.2551,1.2552,1.2482,1.2475,1.2487,1.2561,1.2593,1.2603,1.2765,1.2617,1.2625,1.2631,1.2634,1.3059,1.3065,0,0,0,0,0,0,1.2323,1.2339,1.2527,1.2533,1.2382,1.2449,1.2458,1.2508,1.255,1.2551,1.2492,1.2482,1.2581,1.2593,1.2606,1.28,1.2627,1.2635,1.264,1.3053,1.3061,1.3067,0,0,0,0,0,0,1.2318,1.2341,1.2524,1.2434,1.2456,1.2459,1.2516,1.2513,1.2545,1.2558,1.2557,1.2525,1.2577,1.2593,1.2718,1.2802,1.2639,1.2647,1.3046,1.3056,1.3064,1.3191,0,0,0,0,0,0,1.2311,1.2339,1.2403,1.2436,1.2461,1.2635,1.2521,1.2519,1.2561,1.2549,1.2589,1.259,1.2574,1.2705,1.2727,1.2811,1.2654,1.3039,1.3051,1.3061,1.3179,1.3203,1.3223,0,0,0,0,0,1.2302,1.2436,1.2407,1.243,1.2541,1.264,1.2654,1.2633,1.2568,1.2631,1.2639,1.2589,1.2789,1.2719,1.2742,1.2831,1.3033,1.3047,1.306,1.3169,1.3198,1.3223,0,0,0,0,0,0,1.2414,1.244,1.2408,1.2557,1.2597,1.2624,1.2704,1.2665,1.2724,1.2711,1.2682,1.2691,1.2823,1.2839,1.276,1.2991,1.2901,1.2919,1.2975,1.3003,1.3025,1.3017,1.2662,0,0,0,0,0,1.2456,1.2535,1.2554,1.2684,1.2705,1.2701,1.2744,1.2723,1.2764,1.278,1.2797,1.2838,1.2909,1.2957,1.3024,1.3181,1.3187,1.3253,1.3275,1.3293,1.331,1.339,1.3419,1.3111,1.3111,1.3111,0,0,1.2544,1.2568,1.262,1.2707,1.2735,1.2816,1.2716,1.2807,1.2867,1.2794,1.2911,1.2925,1.2969,1.3109,1.3172,1.3127,1.3396,1.331,1.3325,1.3331,1.3406,1.3436,1.3461,1.312,1.3118,1.3117,0,0,1.2745,1.2772,1.2882,1.2912,1.2955,1.2951,1.2978,1.301,1.3016,1.3134,1.3079,1.315,1.3275,1.3306,1.3339,1.3549,1.3504,1.3572,1.3687,1.3765,1.3789,1.3811,1.3882,1.3909,1.3588,1.3588,1.3588,0,1.2849,1.2969,1.2943,1.3037,1.3075,1.3012,1.3121,1.3152,1.3216,1.3243,1.3192,1.3345,1.337,1.3515,1.3566,1.3596,1.3623,1.3566,1.3788,1.3809,1.3829,1.3897,1.3924,1.3596,1.3595,1.3594,1.3593,0,1.3093,1.3177,1.326,1.3322,1.337,1.3472,1.3459,1.3511,1.3485,1.3486,1.3605,1.3632,1.3702,1.3735,1.3712,1.3876,1.3846,1.3793,1.3701,1.3866,1.3929,1.3955,1.3607,1.3604,1.3602,1.36,0,0,1.3369,1.3412,1.3443,1.3468,1.3511,1.3575,1.3672,1.3739,1.3783,1.3829,1.3908,1.4013,1.3962,1.4,1.3979,1.4049,1.4209,1.3986,1.3986,1.4024,1.4387,1.4426,1.4457,1.4179,1.4184,1.4188,1.4382,0,1.3568,1.3737,1.3715,1.3876,1.3951,1.3891,1.3975,1.401,1.4013,1.4076,1.4079,1.4153,1.4083,1.4104,1.417,1.4175,1.4281,1.4161,1.4251,1.4254,1.424,1.449,1.4532,1.4714,1.4407,1.4412,1.4415,0,1.3825,1.3877,1.4046,1.4073,1.4104,1.418,1.4238,1.43,1.4337,1.4334,1.4374,1.434,1.4435,1.4343,1.4472,1.4391,1.4426,1.4435,1.4441,1.4447,1.4343,1.4501,1.4772,1.4799,1.4454,1.4451,1.4448,0,1.4005,1.4118,1.4233,1.4257,1.4292,1.4347,1.4364,1.4395,1.4435,1.4486,1.4511,1.4573,1.4607,1.4654,1.4637,1.4572,1.4769,1.4676,1.4767,1.4768,1.4811,1.4808,1.5089,1.4837,1.4837,1.4836,1.4836,0,1.4229,1.4334,1.4314,1.4384,1.4498,1.4471,1.4585,1.4595,1.4622,1.4692,1.4644,1.4711,1.4685,1.475,1.4737,1.4844,1.486,1.4859,1.4854,1.4862,1.4862,1.4884,1.487,1.4844,1.4842,1.4841,1.4839,0,1.445,1.4441,1.4561,1.4584,1.4592,1.4675,1.4693,1.4758,1.4756,1.4845,1.4864,1.4862,1.4934,1.4922,1.5004,1.4995,1.5128,1.5109,1.5115,1.511,1.5201,1.5192,1.5505,1.5543,1.5269,1.5271,1.5274,0,1.4593,1.4672,1.4702,1.4745,1.4765,1.4836,1.4876,1.4851,1.4895,1.4941,1.5,1.5068,1.5121,1.524,1.5245,1.5306,1.5286,1.5391,1.5295,1.5299,1.5284,1.5279,1.5285,1.541,1.5413,1.5416,1.5418,0,1.4846,1.4837,1.4897,1.4955,1.5004,1.5049,1.5089,1.5127,1.5105,1.5157,1.523,1.5272,1.5353,1.542,1.5477,1.5493,1.5451,1.5448,1.5472,1.548,1.5479,1.5478,1.5165,1.5441,1.5439,1.5437,1.5436,1.5435,1.5031,1.5096,1.5127,1.5194,1.5221,1.5259,1.532,1.5324,1.5385,1.5449,1.5431,1.5513,1.5544,1.5615,1.5638,1.5701,1.5662,1.5697,1.5706,1.5714,1.5724,1.5471,1.5711,1.5711,1.571,1.5709,1.5709,0,1.5279,1.5295,1.5357,1.5413,1.5466,1.5422,1.5463,1.5509,1.5582,1.5615,1.5667,1.575,1.5814,1.5823,1.5883,1.5932,1.5914,1.5948,1.5944,1.5947,1.5757,1.5729,1.5962,1.5961,1.5961,1.5961,1.5961,1.5961,1.5414,1.5522,1.5516,1.5635,1.565,1.573,1.5756,1.579,1.5815,1.5909,1.5962,1.5967,1.5989,1.605,1.6106,1.6107,1.613,1.6172,1.6165,1.5986,1.5961,1.5937,1.591,1.6178,1.6178,1.6349,1.6351,1.6352]}]]